North Myrtle Beach, SC

5:15 AM EST on December 13, 2017 (GMT -0500)
Grand Strand

Weather History for KCRE - January, 2014

Change the Weather History Date:

Tuesday, January 14, 2014

  Actual Average Record
Temperature  
Mean Temperature 50 °F 45 °F  
Max Temperature 60 °F 55 °F 76 °F (1950)
Min Temperature 40 °F 36 °F 21 °F (2011)
Degree Days  
Heating Degree Days 15 20  
Month to date heating degree days 264 270  
Since 1 July heating degree days 1090 1138  
Cooling Degree Days 0 0  
Month to date cooling degree days 0 0  
Year to date cooling degree days 0 0  
Moisture  
Dew Point 51 °F    
Average Humidity 93    
Maximum Humidity 100    
Minimum Humidity 86    
Precipitation  
Precipitation 0.32 in 0.11 in 0.33 in (2005)
Month to date precipitation 1.52 1.58  
Year to date precipitation 1.52 1.58  
Sea Level Pressure  
Sea Level Pressure 29.91 in    
Wind  
Wind Speed 5 mph (SW)    
Max Wind Speed 20 mph    
Max Gust Speed 26 mph    
Visibility 4 miles    
Events Fog , Rain    
T = Trace of Precipitation, MM = Missing Value Source: NWS Daily Summary

Daily Weather History Graph

Daily Weather History Graph

Search for Another Location

Airport or City:

Trip Planner

Search our weather history database for the weather conditions in past years. The results will help you decide how hot, cold, wet, or windy it might be!

Date:

Astronomy

Jan. 14, 2014 Rise Set
Actual Time 7:19 AM EST 5:28 PM EST
Civil Twilight 6:52 AM EST 5:55 PM EST
Nautical Twilight 6:22 AM EST 6:26 PM EST
Astronomical Twilight 5:52 AM EST 6:56 PM EST
Moon 4:30 PM EST (1/14) 5:54 AM EST (1/14)
Length of Visible Light 11h 02m
Length of Day
10h 08m
Waxing Gibbous, 98% of the Moon is Illuminated
Jan 14
Waxing Gibbous
Jan 15
Full
Jan 24
Last Quarter
Jan 30
New
Feb 6
First Quarter

Hourly Weather History & Observations

Time (EST) Temp. Dew Point Humidity Pressure Visibility Wind Dir Wind Speed Gust Speed Precip Events Conditions
12:53 AM 54.0 °F 52.0 °F 93% 29.95 in 10.0 mi Calm Calm - N/A   Mostly Cloudy
1:53 AM 55.9 °F 53.1 °F 90% 29.92 in 10.0 mi Calm Calm - N/A   Overcast
2:53 AM 55.0 °F 53.1 °F 93% 29.93 in 6.0 mi Calm Calm - 0.01 in Rain Light Rain
3:53 AM 55.0 °F 54.0 °F 96% 29.91 in 7.0 mi Calm Calm - 0.05 in Rain Light Rain
4:53 AM 55.0 °F 54.0 °F 96% 29.86 in 6.0 mi Calm Calm - 0.10 in Rain Light Rain
5:53 AM 55.9 °F 54.0 °F 93% 29.82 in 9.0 mi SE 8.1 mph - 0.01 in Rain Light Rain
6:53 AM 57.0 °F 55.9 °F 96% 29.84 in 10.0 mi SSE 5.8 mph - 0.00 in Rain Light Rain
7:53 AM 59.0 °F 57.0 °F 93% 29.83 in 3.0 mi South 9.2 mph - 0.01 in Rain Light Rain
8:53 AM 60.1 °F 57.9 °F 93% 29.86 in 3.0 mi SSW 15.0 mph 20.7 mph 0.00 in Rain Light Rain
9:08 AM 59.0 °F 57.2 °F 94% 29.84 in 1.5 mi SSW 12.7 mph - 0.00 in Rain Light Rain
9:17 AM 57.2 °F 57.2 °F 100% 29.83 in 1.5 mi SW 6.9 mph - 0.00 in Rain Light Rain
9:53 AM 57.9 °F 57.0 °F 97% 29.85 in 1.5 mi SSW 10.4 mph - 0.00 in Rain Light Rain
10:53 AM 57.9 °F 57.0 °F 97% 29.86 in 1.5 mi SSW 6.9 mph - 0.04 in Rain Light Rain
11:00 AM 57.2 °F 57.2 °F 100% 29.86 in 2.5 mi SSW 11.5 mph - 0.00 in Rain Light Rain
11:12 AM 57.2 °F 55.4 °F 94% 29.85 in 2.5 mi SSW 12.7 mph - 0.01 in Rain Light Rain
11:53 AM 55.9 °F 54.0 °F 93% 29.82 in 2.5 mi South 13.8 mph 20.7 mph 0.02 in Rain Light Rain
12:53 PM 57.0 °F 55.0 °F 93% 29.82 in 2.5 mi SW 17.3 mph - 0.00 in   Overcast
1:53 PM 57.9 °F 55.9 °F 93% 29.83 in 10.0 mi West 10.4 mph 18.4 mph 0.08 in   Overcast
2:22 PM 59.0 °F 55.4 °F 88% 29.84 in 10.0 mi West 8.1 mph - 0.00 in Rain Light Rain
2:53 PM 57.9 °F 55.9 °F 93% 29.85 in 8.0 mi West 4.6 mph - 0.00 in Rain Light Rain
3:19 PM 59.0 °F 55.4 °F 88% 29.86 in 10.0 mi WNW 8.1 mph - 0.00 in   Overcast
3:23 PM 59.0 °F 55.4 °F 88% 29.87 in 10.0 mi WNW 9.2 mph - 0.00 in   Overcast
3:32 PM 59.0 °F 55.4 °F 88% 29.87 in 10.0 mi WNW 6.9 mph - 0.00 in   Overcast
3:53 PM 57.9 °F 54.0 °F 87% 29.88 in 10.0 mi WNW 6.9 mph - 0.00 in   Overcast
4:41 PM 57.2 °F 53.6 °F 88% 29.89 in 10.0 mi NW 4.6 mph - N/A   Partly Cloudy
4:53 PM 57.9 °F 53.1 °F 84% 29.90 in 10.0 mi WNW 3.5 mph - N/A   Partly Cloudy
5:53 PM 55.0 °F 51.1 °F 86% 29.92 in 10.0 mi Calm Calm - N/A   Clear
6:53 PM 52.0 °F 50.0 °F 93% 29.96 in 10.0 mi Calm Calm - N/A   Clear
7:21 PM 50.0 °F 48.2 °F 94% 29.97 in 1.5 mi Calm Calm - N/A   Clear
7:30 PM 48.2 °F 48.2 °F 100% 29.97 in 0.5 mi Calm Calm - N/A Fog Fog
7:41 PM 48.2 °F 46.4 °F 93% 29.97 in 0.5 mi Calm Calm - N/A Fog Fog
7:53 PM 46.9 °F 45.0 °F 93% 29.98 in 0.2 mi Calm Calm - N/A Fog Fog
8:53 PM 45.0 °F 43.0 °F 93% 30.00 in 0.5 mi Calm Calm - N/A Fog Fog
9:19 PM 42.8 °F 42.8 °F 100% 30.01 in 0.2 mi Calm Calm - N/A Fog Fog
9:28 PM 42.8 °F 41.0 °F 93% 30.01 in 0.8 mi Calm Calm - N/A   Mist
9:48 PM 42.8 °F 42.8 °F 100% 30.01 in 0.2 mi Calm Calm - N/A Fog Fog
9:53 PM 42.1 °F 41.0 °F 96% 30.01 in 0.2 mi Calm Calm - N/A Fog Fog
10:11 PM 42.8 °F 42.8 °F 100% 30.01 in 0.5 mi Calm Calm - N/A Fog Fog
10:53 PM 43.0 °F 41.0 °F 93% 30.01 in 0.5 mi Calm Calm - N/A Fog Fog
11:00 PM 41.0 °F 41.0 °F 100% 30.01 in 0.2 mi Calm Calm - N/A Fog Fog
11:23 PM 39.2 °F 39.2 °F 100% 30.00 in 0.5 mi Calm Calm - N/A Fog Fog
11:35 PM 41.0 °F 39.2 °F 93% 30.01 in 0.2 mi Calm Calm - N/A Fog Fog
11:53 PM 39.9 °F 39.0 °F 97% 30.01 in 0.2 mi Calm Calm - N/A Fog Fog